Regional Weather Roundup
Issued by NWS Wakefield, VA

Home | Current Version | Previous Version | Text Only | Print | Product List | Glossary On
Versions: 1 2 3 4 5 6 7 8 9 10 11 12 13 14 15 16 17 18 19 20 21 22 23 24 25 26 27 28
000
ASUS41 KAKQ 291115
RWRAKQ

REGIONAL WEATHER ROUNDUP
NATIONAL WEATHER SERVICE WAKEFIELD VA
700 AM EDT FRI JUL 29 2016

Note: "fair" indicates few or no clouds below 12,000 feet with no
significant weather and/or obstructions to visibility. * = Denotes
station may not report precipitation (e.g., rain,snow,etc.),
thunder or fog.

VAZ042-051-052>054-056-291200-
NORTHERN VIRGINIA

CITY           SKY/WX    TMP DP  RH WIND       PRES   REMARKS
WASH NATIONAL  MOCLDY    75  71  87 N13       29.85R
DULLES         MOCLDY    72  70  93 NW9       29.86R
FORT BELVOIR   FAIR      74  71  90 VRB6      29.85R
QUANTICO       CLOUDY    75  71  87 N8        29.86R
FREDERICKSBRG* CLOUDY    73  73 100 NW6       29.85R
STAFFORD*      CLOUDY    72  70  92 NW7       29.89R
WARRENTON      MOCLDY    73  67  81 NW6       29.87R
CULPEPER*      CLOUDY    72  71  96 N5        29.88R
MANASSAS*      MOCLDY    72  72 100 N8        29.85R
LEESBURG*      CLOUDY    72  72 100 NW12      29.89R
WINCHESTER     CLOUDY    70  68  94 NW8       29.90R
FRONT ROYAL*   CLOUDY    70  68  94 CALM      29.90R
LURAY*         CLOUDY   N/A N/A N/A E3        29.90R
$$

VAZ048-049-060>072-079>083-291200-
CENTRAL AND SOUTH CENTRAL VIRGINIA

CITY           SKY/WX    TMP DP  RH WIND       PRES   REMARKS
RICHMOND       CLOUDY    74  72  93 NW12      29.84R
CHESTERFIELD*  CLOUDY    73  61  64 NW9       29.86R
PETERSBURG*    CLOUDY    76  76 100 W6        29.85R
HANOVER        CLOUDY    74  72  93 NW8       29.86R
TAPPAHANNOCK*  CLOUDY    76  76 100 E5        29.84R
QUINTON*       CLOUDY    75  74  99 W8        29.82R
CHARLOTTSVILLE MOCLDY    74  70  87 NW6       29.87R
GORDONSVILLE*  CLOUDY    73  73  99 MISG      29.86R
ORANGE*          N/A     73  73 100 CALM      29.89R
LOUISA*        CLOUDY    77  75  94 CALM      29.86R
BUMPASS*       CLOUDY    73  73 100 CALM      29.86R
FARMVILLE*     FAIR     N/A N/A N/A CALM      29.86R HAZE
CREWE*         NOT AVBL
FORT PICKETT*  CLOUDY    73  72  98 W10G16    29.86R
CHASE CITY*    FAIR      73  72  94 CALM      29.87R
CLARKSVILLE*   FAIR      73  73 100 CALM      29.86R
SOUTH HILL*    FAIR      74  72  92 W3        29.91R
LAWRENCEVILLE* FAIR      74  73  95 CALM      29.85R
EMPORIA*       FAIR      75  72  88 SW3       29.85R
$$

VAZ088>098-291200-
SOUTHEAST VIRGINIA

CITY           SKY/WX    TMP DP  RH WIND       PRES   REMARKS
NORFOLK        FAIR      81  71  71 VRB7      29.81R
VIRGINIA BEACH FAIR      85  71  63 SW12      29.81R
NORFOLK NAVAL  FAIR      81  72  74 W8        29.83R
WEST POINT*    CLOUDY    76  74  96 NW3       29.83R
SALUDA*        CLOUDY    76  75  99 W9        29.81R
NEWPORT NEWS   FAIR      80  74  81 W9        29.82R
LANGLEY AFB    FAIR      80  73  80 W9        29.81R
FORT EUSTIS    PTCLDY    79  75  87 W7        29.80R
WILLIAMSBURG*  FAIR      81  75  83 W8        29.83R
HR EXEC AP*    FAIR      79  72  78 SW5       29.84R
FRANKLIN*      FAIR      77  71  82 SW5       29.83S
US460-WAKEFLD  FAIR      76  71  85 SW6       29.83R
$$

VAZ020-022-025-037-045-291200-
WEST CENTRAL AND SOUTHWEST VIRGINIA

CITY           SKY/WX    TMP DP  RH WIND       PRES   REMARKS
STAUNTON*      FAIR      67  67 100 CALM      29.94R FOG
WAYNESBORO*    FAIR      69  67  96 MISG      29.93R
HOT SPRINGS VA NOT AVBL
LYNCHBURG      FAIR      70  70 100 W6        29.91R
DANVILLE       FAIR      76  69  79 W8        29.89R
SOUTH BOSTON*  FAIR     N/A N/A N/A CALM      29.87R
MARTINSVILLE   FAIR      72  65  79 CALM      29.95R
ROANOKE        FAIR      72  67  84 W8        29.94R
BLACKSBURG     FAIR      67  66  96 CALM      30.02R
DUBLIN*        MOCLDY    70  66  88 W8        30.01S
MARION*        DRIZZLE   68  66  94 W9        30.06S
HILLSVILLE*    CLOUDY    66  65  97 NW3       30.03R
RICHLANDS*     CLOUDY    66  66 100 W5        30.06S
WISE*          CLOUDY    66  64  94 W7        30.08R FOG
ABINGDON*      CLOUDY    70  69  98 W5        30.05S
$$

MDZ021>025-VAZ099-100-291200-
SOUTHERN MARYLAND AND THE DELMARVA PENINSULA

CITY           SKY/WX    TMP DP  RH WIND       PRES   REMARKS
PATUXENT RIVER MOCLDY    76  73  91 NW5       29.81R
BAY BRIDGE APT CLOUDY    75  72  88 N13G18    29.82R
LEONARDTOWN    CLOUDY    73  72  94 CALM      29.83R
DOVER          LGT RAIN  75  75 100 W14G20    29.78R
GEORGETOWN     CLOUDY    74  73  97 CALM      29.80R
EASTON         CLOUDY    75  75 100 CALM      29.85R FOG
CAMBRIDGE      CLOUDY    72  72 100 CALM      29.79S
SALISBURY      NOT AVBL
OCEAN CITY       N/A    N/A N/A N/A MISG      29.79S
WALLOPS ISLAND CLOUDY    76  75  97 N5        29.80R FOG
ACCOMACK*      FAIR      77  73  88 W7        29.80R
$$

NCZ012>017-030>032-291200-
NORTH CENTRAL AND EASTERN NORTH CAROLINA

CITY           SKY/WX    TMP DP  RH WIND       PRES   REMARKS
ROANOKE RAPIDS FAIR      73  72  94 SW3       29.85R
RALEIGH        CLEAR     76  70  82 SW8       29.87R
ELIZABETH CITY CLEAR     81  72  74 SW15      29.83R
AHOSKIE*       CLEAR     75  72  90 CALM      29.85R
EDENTON*       CLEAR     84  73  69 SW9       29.86R
CURRITUCK*     CLEAR     80  73  78 SW8       29.83R
KILL DEVIL HLS CLEAR     82  73  73 SW9       29.83R
MANTEO           N/A     81  77  86 SW9       29.85R
CAPE HATTERAS  CLEAR     80  77  90 W9        29.88R
TARBORO*       FAIR      78  71  79 SW5       29.86S
GOLDSBORO      CLEAR     80  74  83 SW9       29.86R
WASHINGTON     CLEAR     79  74  86 SW8       29.87R
GREENVILLE     CLEAR     79  75  89 SW6       29.88S
NEW BERN       CLEAR     79  74  84 SW7       29.90R
WILMINGTON     CLEAR     80  76  87 SW9       29.92R
$$

VAZ048-291200-
ELSEWHERE

CITY           SKY/WX    TMP DP  RH WIND       PRES   REMARKS
HARRISBURG PA  PTCLDY    73  72  96 NW5       29.86R
BALTIMORE      CLOUDY    72  69  90 N5        29.85R
ANNAPOLIS      CLOUDY    75  73  93 N8        29.83R
ANDREWS AFB    CLOUDY    72  71  95 N7        29.84R
PHILADELPHIA   RAIN      73  71  93 NE12      29.82R FOG
GREENSBORO     MOCLDY    75  71  87 NW8       29.91R
ROCKY MOUNT    CLEAR     77  73  87 SW6       29.86R
$$

VAZ100-291200-
MARINE

STATION/POSITION TIME  TEMP    WIND        PRES    WAVE   SWELL
                       AIR SEA DIR/SP/G            HT/PER HT/PER
                 (UTC) (F)     (DEG/KT/KT) (MB)    (FT/S) (FT/S)
BRANDYWINE LGT   1000   73     130/  7/  8   N/A
CAPE MAY NJ      1000   74 72   30/  3/  3 1008.2R
LEWES DE         1000   74 73  140/  2/  3 1008.4R
OCEAN-CITY-INLET 1000   74 71   20/  4/  5 1009.1R
WACHAPREAGUE VA  1000   77 83  230/  3/  5 1007.8F
THOMAS POINT MD  1100   75 84  360/ 16/ 18 1011.2R
GOOSES REEF MD   1000   79 85  300/  8/ 10 1009.7R   0
COVE POINT MD    1000   76     330/  7/ 10 1009.3R
SOLOMONS ISLAND  1000   76 85  270/  6/  8   N/A
BISHOPS HEAD MD  1000   78     310/ 10/ 13 1008.9R
PINEY POINT MD   1000          300/ 11/ 13   N/A
POTOMAC MD       1000   79 85  310/ 12/ 16 1007.8R   1/ 2
CAMBRIDGE MD     1000   75 88  120/  2/  4 1007.8R
LEWISETTA VA     1000   76 86  320/ 10/ 12 1008.6R
RAPPAHANNOCK LGT 1000          230/ 17/ 19 1008.4S
STINGRAY PT      1000   82 85  200/ 12/ 16 1008.4R
YORK RVR RNG VA  1000   82     260/ 13/ 16 1007.9R
YORKTOWN VA      1000   80 85  240/ 10/ 13 1008.2R
JAMESTOWN VA     1000   78 89  270/  8/ 10   N/A     0
DOMINION TERM VA 1000   82     250/ 13/ 16 1008.8R
KIPTOPEKE VA     1000      80  250/ 12/ 14   N/A
CHES BAY BRIDGE  1000   83 79  210/ 14/ 18 1008.2R
CAPE HENRY VA    1000   81     220/  9/ 12   N/A
WILLOUBY STN VA  1000   82     230/ 14/ 15   N/A
CAPE HENRY BUOY  1012      76                N/A     2/ 4
1ST LANDING BUOY 1000   82 79  240/ 14/ 17 1008.1R   2/ 3
CAPE CHARLES BUO 1026      76                N/A     2/ 4
OFFSHORE WE BUOY 1021      82                N/A     3/ 4
64NM E OF VA BCH 1050   83 82  230/ 14/ 16 1009.5R   3/ 5   2/ 8
DUCK PIER NC     1000   83 66  230/ 13/ 18 1009.2S
44100 DUCK FRF   1005      80                N/A     2/ 3
44056 DUCK FRF   1011      72                N/A     1/ 8
OREGON INLET NC  1000   84 83  220/ 14/ 16 1010.4R
HATTERAS NC      1000   81 83  230/  9/ 13 1011.1S
DIAMOND SHLS NC  1050   84 85  240/ 16/ 19 1011.9R   4/ 6   2/12
CAPE LOOKOUT NC  1100   83     240/ 13/ 16 1012.2R
$$




USA.gov is the U.S. government's official web portal to all federal, state and local government web resources and services.